Starlink 31853

operational
NORAD ID: 59933 Int'l Des: 2024-106 Owner: SPXS Country: US Constellation: starlink
LEOCIRCULAR

About Starlink 31853

Description loading...

Live Position

Loading 3D Globe...

Upcoming Passes

Altitude History

Altitude vs Time

uPlot chart will show altitude changes over time

Two-Line Element Set

1 59933U 24106M 25257.34914003 -.00001208 00000-0 -34415-4 0 9991
2 59933 43.0026 248.4130 0001169 276.4993 83.5726 15.27557603 73557
Epoch: Sep 14, 2025 • Age: 25 hours

Current Status

Altitude 485.7 km
Velocity 7.63 km/s
Sub-Earth Point 37.51°N, 156.34°E
Launch Date Jun 1, 2024
Age 1.2 years
Type internet

Technical Details

Classification Payload
Mass 730.00 kg
Dry Mass 700.00 kg
Total Mass 730.00 kg
Length 0.30 m
Diameter 4.10 m
Span 29.00 m
Shape Box + pan
Manufacturer SPXS
Bus Type Starlink V2M
Phase Status In Orbit
Owner/State SPXS/US

Large Constellations

Loading constellations...